{"data":{"norad_id":68119,"intl_designator":"2026-044U","name":"STARLINK-36850","alt_names":[],"object_type":"PAYLOAD","status":"ACTIVE","operator":null,"country":"US","launch_date":"2026-03-08","launch_site_code":"AFWTR","launch_vehicle":null,"mission":null,"orbit_class":"UNKNOWN","rcs_meters":null,"size_class":null,"mass_kg":null,"dimensions":null,"purposes":["comms"],"wikipedia_slug":null,"has_3d_model":false,"image_url":null,"decayed_at":null,"tle_current":{"epoch":"2026-05-24T19:46:38.184384Z","epoch_age_seconds":86397,"freshness":"FRESH","line1":"1 68119U 26044U   26144.82405306  .00024529  00000+0  75949-3 0  9994","line2":"2 68119  97.2848 105.5009 0002087  88.3501 271.7981 15.33450859 13256","mean_motion":15.33450859,"eccentricity":0.0002087,"inclination_deg":97.2848,"raan_deg":105.5009,"arg_perigee_deg":88.3501,"mean_anomaly_deg":271.7981,"bstar":0.00075949,"rev_number":1325,"period_min":93.905845860562,"perigee_km":464.09746985748,"apogee_km":466.95401468611,"semimajor_km":6843.6627422718,"source":"CELESTRAK","updated_at":"2026-05-25T13:38:21.844582Z"}}}